Date String (YYYY-MM-DD hh:mm:ss) UTC,Instrument flags,Ambient pressure (hPa),Sample flow (lpm),Bypass flow (lpm),Sample temperature (°C),Ambient temperature (°C),ASC tube jacket temperature (°C),LED temperature (°C),Box temperature (°C),Sample RH (%),Span deviation,Mass concentration (μg/m³),Mass concentration (μg/m³),Mass concentration (μg/m³)
DateTimeUTC,F1_M11,P_M11,Q1_M11,Q2_M11,T1_M11,T2_M11,T3_M11,T4_M11,T5_M11,U1_M11,ZSPAN_M11,X0_M11,X2_M11,X1_M11
2022-12-05 21:00:00,,0816.8,5.00,0.00,24.3,23.4,00.0,33.0,26.2,16.4,0000.0,0007.44,0003.14,0002.45
2022-12-05 21:01:00,,0817.0,5.00,0.00,24.3,23.4,00.0,33.0,26.2,16.3,0000.0,0007.34,0003.10,0002.44
2022-12-05 21:02:00,,0816.7,5.00,0.00,24.3,23.4,00.0,33.0,26.2,15.3,0000.0,0005.65,0002.95,0002.36
2022-12-05 21:03:00,,0817.0,5.00,0.00,24.3,23.5,00.0,33.1,26.3,16.0,0000.0,0005.50,0002.90,0002.32
2022-12-05 21:04:00,,0816.9,5.00,0.00,24.4,23.5,00.0,33.1,26.3,14.2,0000.0,0005.38,0002.79,0002.23
2022-12-05 21:05:00,,0817.0,5.00,0.00,24.4,23.5,00.0,33.1,26.3,14.0,0000.0,0005.19,0002.63,0002.10
2022-12-05 21:06:00,,0816.9,4.99,0.00,24.4,23.5,00.0,33.1,26.4,14.1,0000.0,0005.05,0002.47,0001.96
2022-12-05 21:07:00,,0816.8,5.00,0.00,24.4,23.6,00.0,33.2,26.4,14.2,0000.0,0005.14,0002.32,0001.82
2022-12-05 21:08:00,,0816.6,5.00,0.00,24.5,23.6,00.0,33.2,26.3,14.4,0000.0,0005.09,0002.16,0001.71
2022-12-05 21:09:00,,0816.7,5.00,0.00,24.5,23.6,00.0,33.2,26.4,14.2,0000.0,0004.66,0001.99,0001.59
2022-12-05 21:10:00,,0816.8,5.01,0.00,24.5,23.6,00.0,33.2,26.4,14.1,0000.0,0004.68,0001.88,0001.45
2022-12-05 21:11:00,,0816.5,5.01,0.00,24.5,23.6,00.0,33.3,26.5,13.2,0000.0,0004.47,0001.71,0001.28
2022-12-05 21:12:00,,0816.5,5.00,0.00,24.6,23.6,00.0,33.3,26.5,12.8,0000.0,0004.04,0001.49,0001.06
2022-12-05 21:13:00,,0816.6,4.99,0.00,24.6,23.7,00.0,33.3,26.5,13.0,0000.0,0003.04,0001.26,0000.90
2022-12-05 21:14:00,,0816.6,4.99,0.00,24.6,23.7,00.0,33.3,26.5,12.8,0000.0,0002.80,0001.07,0000.74
2022-12-05 21:15:00,,0816.5,5.01,0.00,24.6,23.7,00.0,33.4,26.6,12.1,0000.0,0002.82,0000.98,0000.65
2022-12-05 21:16:00,,0816.7,5.01,0.00,24.6,23.7,00.0,33.4,26.6,12.4,0000.0,0002.71,0000.96,0000.64
2022-12-05 21:17:00,,0816.6,5.01,0.00,24.7,23.7,00.0,33.4,26.6,13.0,0000.0,0002.67,0000.97,0000.65
2022-12-05 21:18:00,,0816.7,5.00,0.00,24.7,23.7,00.0,33.4,26.6,12.7,0000.0,0002.38,0000.98,0000.65
2022-12-05 21:19:00,,0816.5,4.99,0.00,24.7,23.7,00.0,33.4,26.6,12.0,0000.0,0002.17,0000.96,0000.61
2022-12-05 21:20:00,,0816.9,4.99,0.00,24.7,23.7,00.0,33.4,26.7,12.0,0000.0,0002.20,0000.97,0000.58
2022-12-05 21:21:00,,0816.8,4.99,0.00,24.7,23.8,00.0,33.5,26.7,12.7,0000.0,0001.97,0000.92,0000.57
2022-12-05 21:22:00,,0816.5,5.01,0.00,24.7,23.8,00.0,33.5,26.7,11.5,0000.0,0001.90,0000.91,0000.57
2022-12-05 21:23:00,,0816.7,5.01,0.00,24.7,23.8,00.0,33.5,26.7,11.5,0000.0,0001.70,0000.91,0000.57
2022-12-05 21:24:00,,0816.6,5.00,0.00,24.7,23.8,00.0,33.5,26.7,11.5,0000.0,0001.79,0000.93,0000.58
2022-12-05 21:25:00,,0817.0,4.99,0.00,24.8,23.8,00.0,33.5,26.7,11.7,0000.0,0001.83,0000.94,0000.58
2022-12-05 21:26:00,,0817.0,4.99,0.00,24.8,23.8,00.0,33.6,26.7,12.5,0000.0,0001.54,0000.92,0000.59
2022-12-05 21:27:00,,0816.7,4.99,0.00,24.8,23.9,00.0,33.6,26.8,12.8,0000.0,0001.70,0000.97,0000.64
2022-12-05 21:28:00,,0816.5,5.01,0.00,24.8,23.9,00.0,33.6,26.8,12.1,0000.0,0001.73,0000.98,0000.66
2022-12-05 21:29:00,,0816.5,5.01,0.00,24.8,23.9,00.0,33.6,26.8,10.7,0000.0,0001.81,0001.00,0000.66
2022-12-05 21:30:00,,0816.5,5.00,0.00,24.8,23.9,00.0,33.6,26.8,10.7,0000.0,0001.78,0001.00,0000.67
2022-12-05 21:31:00,,0816.7,4.99,0.00,24.9,23.9,00.0,33.6,26.8,10.9,0000.0,0001.74,0000.97,0000.67
2022-12-05 21:32:00,,0816.8,5.00,0.00,24.9,23.9,00.0,33.6,26.8,11.2,0000.0,0001.65,0000.91,0000.65
2022-12-05 21:33:00,,0816.6,5.01,0.00,24.9,23.9,00.0,33.7,26.8,11.2,0000.0,0001.62,0000.89,0000.63
2022-12-05 21:34:00,,0816.4,5.00,0.00,24.9,23.9,00.0,33.7,26.8,11.5,0000.0,0001.68,0000.89,0000.64
2022-12-05 21:35:00,,0816.7,5.00,0.00,24.9,23.9,00.0,33.7,26.8,11.0,0000.0,0001.69,0000.90,0000.64
2022-12-05 21:36:00,,0816.5,5.00,0.00,24.9,23.9,00.0,33.7,26.8,11.8,0000.0,0001.67,0000.93,0000.65
2022-12-05 21:37:00,,0816.7,5.00,0.00,24.9,23.8,00.0,33.7,26.8,11.6,0000.0,0001.67,0000.93,0000.67
2022-12-05 21:38:00,,0816.8,5.00,0.00,24.9,23.7,00.0,33.7,26.7,12.0,0000.0,0001.58,0000.93,0000.65
2022-12-05 21:39:00,,0816.8,4.99,0.00,24.8,23.6,00.0,33.7,26.7,11.4,0000.0,0001.54,0000.93,0000.65
2022-12-05 21:40:00,,0817.0,5.00,0.00,24.9,23.6,00.0,33.7,26.7,11.0,0000.0,0001.52,0000.93,0000.65
2022-12-05 21:41:00,,0817.0,5.01,0.00,24.9,23.6,00.0,33.7,26.8,10.8,0000.0,0001.55,0000.94,0000.65
2022-12-05 21:42:00,,0816.9,5.01,0.00,24.9,23.7,00.0,33.7,26.8,10.3,0000.0,0001.61,0000.96,0000.65
2022-12-05 21:43:00,,0816.7,5.01,0.00,24.9,23.7,00.0,33.7,26.8,10.1,0000.0,0001.72,0000.98,0000.66
2022-12-05 21:44:00,,0816.8,4.99,0.00,24.9,23.7,00.0,33.7,26.8,10.1,0000.0,0001.74,0000.99,0000.66
2022-12-05 21:45:00,,0816.6,4.99,0.00,24.9,23.8,00.0,33.7,26.8,10.2,0000.0,0001.72,0001.00,0000.66
2022-12-05 21:46:00,,0816.8,5.01,0.00,24.9,23.8,00.0,33.7,26.8,10.4,0000.0,0001.67,0001.00,0000.65
2022-12-05 21:47:00,,0817.1,5.00,0.00,24.9,23.8,00.0,33.7,26.8,10.3,0000.0,0001.84,0001.01,0000.64
2022-12-05 21:48:00,,0817.0,5.00,0.00,24.9,23.8,00.0,33.8,26.8,10.5,0000.0,0001.95,0001.04,0000.62
2022-12-05 21:49:00,,0817.0,5.00,0.00,24.9,23.8,00.0,33.8,26.8,10.5,0000.0,0002.34,0001.05,0000.60
2022-12-05 21:50:00,,0817.1,5.00,0.00,24.9,23.8,00.0,33.8,26.8,10.7,0000.0,0002.31,0001.02,0000.57
2022-12-05 21:51:00,,0816.6,5.00,0.00,24.9,23.8,00.0,33.8,26.9,10.8,0000.0,0002.44,0001.00,0000.56
2022-12-05 21:52:00,,0816.6,5.00,0.00,24.9,23.8,00.0,33.8,26.8,10.9,0000.0,0002.72,0001.00,0000.56
2022-12-05 21:53:00,,0816.6,5.00,0.00,24.9,23.7,00.0,33.8,26.8,11.0,0000.0,0002.69,0000.99,0000.56
2022-12-05 21:54:00,,0816.5,5.00,0.00,24.9,23.8,00.0,33.8,26.8,11.0,0000.0,0002.67,0001.01,0000.57
2022-12-05 21:55:00,,0816.7,5.00,0.00,24.9,23.8,00.0,33.8,26.8,11.1,0000.0,0002.75,0001.05,0000.57
2022-12-05 21:56:00,,0816.6,5.01,0.00,24.9,23.8,00.0,33.8,26.8,11.1,0000.0,0002.80,0001.05,0000.57
2022-12-05 21:57:00,,0816.5,5.01,0.00,24.9,23.7,00.0,33.8,26.8,11.1,0000.0,0002.87,0001.03,0000.57
2022-12-05 21:58:00,,0816.5,4.99,0.00,24.9,23.7,00.0,33.8,26.8,11.1,0000.0,0003.06,0001.01,0000.57
2022-12-05 21:59:00,,0816.5,4.99,0.00,24.9,23.6,00.0,33.8,26.8,11.2,0000.0,0003.01,0000.99,0000.57
